Content
SEND FEEDBACK

Daily
Averages
Monthly
Summary
United States of America

SPRINGERVILLE, ARIZONA


Home > North America > United States > Arizona
Elevation: 7006 feet     Latitude: 34 08N     Longitude: 109 18W

WEATHER
 
SELECT A DAY
Number of Records: 140,805;   Date Range: 5/1/95 - 10/30/14
 
SHARE

PRINT THIS DATA

[ ← Previous Day ]
WEATHER ALMANAC - JANUARY 31, 2013
[ Next Day → ]
[ °C ]   °F
Weather ElementAverageHighLow
Temperature31.8 °F48 °F (2:54 pm)16 °F (7:54 am)
Dewpoint20.2 °F25 °F (11:54 am)12 °F (7:54 am)
Humidity65.6 %86 % (11:54 pm)34 % (3:54 pm)
Barometer30.29 in30.38 in (7:54 am)30.23 in (2:54 pm)
Wind Speed2.3 mph6.9 mph (8:54 pm)
Weather ElementAverage
Visibility9.8 mi
Wind DirectionESE (102.3 °)

Weather ElementTotal
Precipitation---
Heating Degree Days33 (Base 65)
Averaged from 22 records on January 31, 2013
WEATHER CONDITIONS BREAKOUT
WIND DIRECTION BREAKOUT
WEATHER BY HOUR - JANUARY 31, 2013
[ °C ]   °F
Local TimeTemperatureDewpointHumidityBarometerVisibilityWind DirectionWind SpeedGust SpeedPrecipitationEventsConditions
1:54 AM21.0 °F17.1 °F85 %30.30 in10.0 miSE (140°)4.6 mphClear
2:54 AM26.1 °F19.0 °F75 %30.27 in10.0 miCalmClear
3:54 AM19.0 °F15.1 °F85 %30.29 in10.0 miCalmClear
4:54 AM19.0 °F14.0 °F81 %30.30 in10.0 miCalmClear
5:54 AM19.9 °F16.0 °F85 %30.31 in10.0 miSouth (180°)5.8 mphClear
6:54 AM19.9 °F16.0 °F85 %30.34 in10.0 miCalmClear
7:54 AM16.0 °F12.0 °F84 %30.38 in10.0 miCalmClear
8:54 AM26.1 °F19.9 °F78 %30.36 in10.0 miNE (40°)3.5 mphClear
9:54 AM30.9 °F21.9 °F69 %30.35 in10.0 miCalmClear
10:54 AM35.1 °F24.1 °F64 %30.33 in10.0 miNorth (360°)3.5 mphClear
11:54 AM41.0 °F25.0 °F53 %30.28 in10.0 miCalmClear
12:54 PM44.1 °F25.0 °F47 %30.29 in10.0 miCalmClear
1:54 PM46.0 °F25.0 °F44 %30.26 in10.0 miVariable3.5 mphClear
2:54 PM48.0 °F21.9 °F36 %30.23 in10.0 miNNW (340°)5.8 mphClear
3:54 PM46.9 °F19.9 °F34 %30.26 in10.0 miNW (320°)4.6 mphClear
4:54 PM46.9 °F21.9 °F37 %30.25 in10.0 miNorth (350°)4.6 mphClear
5:54 PM42.8 °F23.0 °F46 %30.25 in10.0 miCalmClear
6:54 PM36.0 °F25.0 °F64 %30.29 in10.0 miCalmClear
7:54 PM32.0 °F23.0 °F69 %30.25 in10.0 miSSE (160°)4.6 mphClear
8:54 PM30.9 °F21.9 °F69 %30.30 in10.0 miSSE (160°)6.9 mphClear
9:54 PM30.9 °F21.0 °F67 %30.29 in10.0 miCalmClear
11:54 PM21.2 °F17.6 °F86 %30.26 in5.0 miSSW (200°)3.5 mphClear
Hourly data recorded from KSJN, located miles away from Springerville, Arizona







STORIES FROM OUR PARTNERS